Terug naar catalogus

STARLINK-11667

ActiefCommunicatieVLEO
NORAD 63550·PAYLOAD·🇺🇸 United States

Gelanceerd Apr 13, 2025 vanaf Cape Canaveral Space Force Station

Loading…

Volgende Passages (komende 24 uur)

TLE

VersSource: CelesTrak SupGP

Epoch: Sep 15, 2026, 03:09 UTC

1 63550C 25075C   26258.13173611  .00016288  00000+0  12642-3 0  2584
2 63550  43.0007  92.1442 0001774 267.7473 332.3317 15.70846049    19

Volg STARLINK-11667 in realtime met AllMySat

Download on the App Store